Regional Weather Roundup
Issued by NWS Albany, NY

Home | Current Version | Previous Version | Text Only | Print | Product List | Glossary On
Versions: 1 2 3 4 5 6 7 8 9 10 11 12 13 14 15 16 17 18 19 20 21 22 23 24 25 26 27 28 29 30 31 32 33 34 35 36 37 38 39 40 41 42 43 44 45 46 47 48 49 50
000
ASUS41 KALY 012210
RWRALY

NEW YORK STATE HOURLY WEATHER ROUNDUP
NATIONAL WEATHER SERVICE ALBANY NY
600 PM EDT SAT AUG 01 2015

NOTE: "FAIR" INDICATES FEW OR NO CLOUDS BELOW 12,000 FEET WITH NO
SIGNIFICANT WEATHER AND/OR NO OBSTRUCTIONS TO VISIBILITY.

NYZ032-033-038>043-046>054-057>066-NYZ062>081-012300-
EAST


CITY           SKY/WX    TMP DP  RH WIND       PRES   REMARKS
ALBANY         MOSUNNY   82  54  37 W16G26    29.76S
GLENS FALLS    SUNNY     80  53  39 W12G20    29.75R
POUGHKEEPSIE   SUNNY     87  52  29 W12       29.76R
NEWBURGH       PTSUNNY   84  57  39 W14       29.80R
MONTGOMERY     MOSUNNY   83  56  39 SW8       29.79R
WHITE PLAINS   MOSUNNY   82  58  43 NW10      29.79R
ISLIP          PTSUNNY   84  62  47 SW15G22   29.75R
NEW YORK CITY  PTSUNNY   87  55  33 NW16      29.77R
CENTRAL PARK   PTSUNNY   86  56  35 VRB6      29.80S
$$

NYZ005>009-017-018-044>046-055-056-012300-
CENTRAL


CITY           SKY/WX    TMP DP  RH WIND       PRES   REMARKS
FULTON         SUNNY     75  56  51 W8        29.82F
SYRACUSE       PTSUNNY   76  58  53 W13       29.81S
ROME           MOSUNNY   75  56  51 NW15      29.81F
ELMIRA         SUNNY     79  52  38 W10G21    29.84S
BINGHAMTON     MOSUNNY   75  53  46 W10       29.86S
MONTICELLO     MOSUNNY   79  54  41 NW12      29.86S
$$

NYZ026>034-041>043-012300-
NORTH


CITY           SKY/WX    TMP DP  RH WIND       PRES   REMARKS
WATERTOWN      MOSUNNY   73  59  61 SW15      29.79F
FORT DRUM      NOT AVBL
MASSENA        TSTM      62  57  83 SW10      29.78R
SARANAC LAKE   PTSUNNY   68  53  58 W7        29.78F
PLATTSBURGH    PTSUNNY   80  57  45 VRB3      29.71F
$$

NYZ001>004-010>016-019>021-012300-
WEST


CITY           SKY/WX    TMP DP  RH WIND       PRES   REMARKS
NIAGARA FALLS  TSTM      68  61  78 SW12      29.84R
BUFFALO        PTSUNNY   74  54  49 SW15      29.85R
DUNKIRK        SUNNY     76  55  48 SW14      29.86F
JAMESTOWN      MOSUNNY   72  48  43 W13       29.92S
WELLSVILLE     MOSUNNY   74  50  42 W10       29.92F
ROCHESTER      PTSUNNY   74  56  53 W15       29.84S
PENN YAN       MOSUNNY   76  55  48 NW7       29.85F
$$

             KEY
       WCI = WIND CHILL INDEX
       VSB = VISIBILITY
       HX  = HEAT INDEX
$$


USA.gov is the U.S. government's official web portal to all federal, state and local government web resources and services.